STARLINK-35928 (66528 NORAD) Tracking and Keplerian Element Data

This shows tracking and keplerian element data for the satellite.

Feedback or suggestion? Click here.




ElementValue
Catalog66528
NameSTARLINK-35928
Epoch Orbit480
Epoch Day353.47477845
Epoch Year2025
RAAN14.5783
Inclination43.0002
Eccentricity0.0003398
Argument of Perigee311.8775
Mean Anonmoly48.1795
Mean Motion15.50587837
Decay Rate0.00090869
L11 66528U 25265N 25353.47477845 .00090869 00000+0 15361-2 0 9990
L22 66528 43.0002 14.5783 0003398 311.8775 48.1795 15.50587837 4806



Live tracking and technical data element details for STARLINK-35928 (NORAD 66528). STARLINK-35928 can be tracked NOW for your location showing map with azimuth and elevation plus other details from your city location.







IsCatalogInMostPopularTable: catalog: 66528, numindb: 3
Update: records affected: 1



GetName: 66528 STARLINK-35928

Hit Count: updated at: Wed, 11 Feb 2026 15:11:11 GMT